Wind_Speed
6 6 6 5 6 4 2 3 4 4 4 5 5 4 4 3 0 1 2 7 10 11 11 8 6 7 9 7 3 5 5 1 9 7 9 8 8 7 12 10 5 5 4 11 12
7 7 6 6 5 4 2 2 2 3 4 4 5 4 4 5 5 1 1 8 13 15 14 11 5 3 3 7 8 5 5 6 9 10 11 6 9 6 6 4 7 12 15 13 12
7 7 7 6 5 4 3 1 1 3 3 2 4 6 7 9 7 2 3 10 16 16 12 7 4 2 5 10 6 14 4 7 6 8 8 5 8 6 3 9 1 7 11 7 15
9 9 8 7 6 5 4 3 1 1 2 1 3 2 2 4 3 7 12 14 16 13 16 4 4 9 4 13 16 7 1 9 6 7 6 10 6 7 6 5 4 2 3 7 14
11 11 10 9 8 7 6 5 3 1 1 0 2 1 1 7 4 9 11 13 13 18 13 4 8 7 4 4 2 4 5 3 4 3 1 3 6 3 5 5 5 7 4 7 15
11 12 11 11 10 9 8 7 5 4 2 0 3 5 7 7 8 8 9 9 9 12 1 7 5 5 4 2 2 3 3 1 1 3 2 5 5 3 4 5 7 3 4 12 15
10 12 13 13 12 11 10 9 8 7 5 3 3 4 6 3 8 7 5 5 7 10 1 6 6 6 7 3 5 2 6 3 5 2 3 2 7 3 6 6 8 8 6 9 14
7 9 12 13 14 14 13 12 11 9 8 6 5 8 1 4 8 9 4 5 5 3 3 2 3 3 7 6 5 4 9 5 5 2 5 2 11 10 10 8 9 9 11 11 11
6 6 7 9 11 14 15 15 13 11 10 10 8 8 7 9 11 9 6 7 2 3 2 2 1 4 7 4 15 8 2 4 7 2 3 3 8 8 9 9 11 12 13 13 13
6 6 5 5 6 8 11 14 14 13 13 12 13 8 11 8 10 12 10 8 8 8 8 5 10 14 12 10 11 7 11 2 5 2 3 7 7 7 13 10 12 14 15 16 16
7 6 6 5 4 4 5 6 4 10 17 17 3 9 4 8 14 12 12 10 9 9 11 9 11 15 17 3 3 4 7 9 1 4 7 11 8 8 10 11 10 13 17 15 17
9 8 6 5 4 3 3 11 8 15 9 16 17 13 10 13 8 11 14 14 12 11 10 10 16 9 5 8 5 6 9 7 9 3 7 10 15 13 13 14 12 11 15 17 14
11 10 8 5 4 4 3 8 9 15 16 13 22 21 17 14 13 11 17 16 14 12 13 19 8 5 6 8 8 10 11 15 4 14 18 22 22 21 15 17 11 13 13 18 17
12 11 10 7 4 4 2 2 6 7 7 12 20 21 23 18 19 17 19 17 16 18 15 16 14 16 12 11 11 18 8 12 12 15 20 10 22 8 2 17 9 11 14 13 20
12 12 11 10 7 5 6 3 5 5 6 10 12 13 18 26 8 18 18 16 20 17 14 18 17 16 18 17 15 18 18 14 13 18 23 22 23 7 9 14 4 2 10 10 16
13 13 12 11 11 8 5 4 6 3 9 9 11 10 17 23 24 8 17 20 18 19 20 22 18 15 14 13 15 17 15 17 20 23 25 28 17 21 8 10 7 7 6 9 5
14 14 13 11 13 10 8 8 4 12 3 9 9 9 13 15 20 22 18 21 21 20 22 20 23 21 20 19 17 16 18 21 18 16 18 4 6 19 15 7 5 8 5 5 8
16 15 14 13 12 12 12 7 10 9 9 4 4 8 12 12 14 20 26 21 22 23 24 23 21 21 22 23 22 19 22 21 18 15 23 8 13 18 18 15 10 11 11 10 6
15 15 15 14 13 14 16 16 12 9 7 5 8 10 13 13 14 14 23 28 22 22 25 25 27 18 12 11 14 20 24 21 27 29 29 32 31 18 9 4 8 7 7 7 8
13 13 10 14 14 15 19 23 19 8 8 4 9 8 14 16 15 15 16 16 24 24 23 23 25 22 22 16 17 20 20 25 24 19 19 23 28 25 10 11 6 5 10 12 7
10 4 17 10 15 19 21 20 19 14 11 12 13 14 11 13 9 13 17 12 16 15 22 25 23 21 17 22 24 22 24 20 22 26 18 15 23 14 10 15 20 15 11 6 11
11 8 16 13 16 17 21 19 17 17 13 13 12 12 10 11 11 14 16 10 6 7 14 19 26 28 30 23 23 24 25 25 27 18 25 26 30 26 10 6 15 13 12 13 5
11 7 18 18 14 17 16 20 19 18 22 16 15 16 15 16 17 16 15 17 10 6 10 11 15 22 21 22 22 22 27 26 24 28 30 23 26 25 12 14 25 26 21 11 14
15 5 12 11 17 17 15 20 20 19 19 17 17 16 16 17 17 18 18 13 11 10 18 17 20 23 28 22 21 6 20 17 23 24 26 28 27 22 18 9 25 26 10 7 7
11 7 5 7 9 17 15 15 14 20 20 16 16 20 18 19 20 22 22 22 23 19 18 16 23 24 28 27 30 29 15 22 23 22 19 22 22 22 14 3 6 19 23 13 12
13 13 16 13 8 10 15 17 17 15 16 17 13 16 16 17 18 19 20 20 22 22 23 20 25 23 27 26 28 33 29 30 19 29 31 36 26 28 30 15 10 13 13 12 13
22 20 15 8 8 12 12 14 14 14 15 13 16 10 10 12 12 12 15 17 20 19 19 19 22 19 25 24 28 26 31 29 33 25 33 19 24 36 37 40 28 20 15 3 13
Wind_Direction
239 248 255 263 269 278 307 3 19 37 53 62 66 62 68 91 87 346 204 190 159 155 159 173 179 150 128 61 295 266 300 352 95 93 97 133 90 81 79 88 98 106 223 176 169
241 246 250 254 260 267 286 349 23 45 55 66 62 50 60 55 60 123 25 164 158 155 152 103 7 93 127 117 108 122 337 33 81 63 96 100 91 105 79 102 91 99 143 195 169
244 249 251 254 257 252 249 267 27 51 62 77 67 91 83 67 60 307 177 158 153 157 165 142 176 68 238 186 143 32 21 118 97 96 89 98 85 72 55 99 89 148 150 174 165
245 247 250 250 250 248 242 238 221 68 60 102 104 108 60 56 38 136 130 139 147 150 119 70 26 204 101 243 146 272 119 82 90 97 76 110 75 96 68 83 187 341 134 164 172
244 245 244 246 247 247 243 239 227 205 69 69 110 34 164 68 152 141 131 138 142 135 68 336 304 47 306 358 298 78 112 135 107 101 73 179 127 63 121 113 156 40 122 153 171
247 246 244 243 242 245 243 242 233 223 222 346 155 151 121 92 163 139 124 136 156 128 138 337 316 319 323 325 137 104 59 54 147 190 271 285 112 54 169 147 183 14 99 168 179
254 252 249 245 245 242 241 240 236 229 221 209 227 213 172 226 194 169 112 120 149 119 22 302 288 308 324 248 247 205 191 229 189 217 257 285 9 221 174 171 187 173 169 178 186
254 253 252 249 244 243 240 238 235 231 224 219 215 217 132 177 224 212 199 140 131 83 99 178 306 289 279 308 279 258 211 241 177 297 222 288 275 187 196 183 203 199 194 196 202
258 256 256 253 247 241 236 234 233 233 228 221 224 225 234 245 230 224 208 179 221 153 151 119 286 263 282 242 285 312 283 217 143 235 217 263 243 203 194 209 207 208 215 211 210
262 258 252 252 253 247 237 231 230 233 231 224 223 236 249 248 233 222 217 207 232 257 262 263 267 274 262 231 270 254 209 272 108 14 278 248 262 253 211 210 214 216 214 219 218
265 261 261 254 245 248 234 212 226 255 236 224 297 218 324 198 202 211 218 219 227 242 250 249 263 267 332 298 289 316 324 308 221 260 286 290 288 263 240 218 223 222 226 223 221
260 258 254 248 247 237 205 165 263 222 239 225 201 225 220 223 217 218 212 216 224 233 244 250 242 262 295 267 292 288 287 298 289 259 282 284 275 259 246 229 234 226 233 224 230
266 261 257 255 236 225 226 234 237 225 252 242 227 222 220 221 220 228 217 219 221 235 236 249 250 283 267 283 273 265 265 308 318 307 292 274 270 254 235 223 228 226 228 227 222
266 259 256 252 246 227 229 234 210 224 266 245 209 229 221 226 243 211 234 219 230 234 244 254 253 256 271 277 261 272 317 302 299 296 296 301 265 352 245 238 219 233 227 218 222
264 258 249 241 227 184 208 186 178 173 274 147 197 221 206 213 92 214 206 223 223 236 243 252 249 258 264 264 261 262 283 296 300 288 284 279 273 167 270 235 246 39 187 234 223
266 261 250 237 231 224 197 178 153 221 246 182 205 222 200 213 222 218 220 223 228 242 247 252 256 263 255 263 259 267 286 280 281 277 270 269 264 292 148 190 203 243 252 215 221
262 258 255 242 233 218 199 167 228 236 137 202 210 210 204 214 222 217 214 218 223 231 244 252 251 253 254 258 260 259 271 276 276 274 275 244 83 229 309 279 214 203 191 218 241
264 257 251 243 233 211 195 183 238 242 233 198 199 201 214 215 225 221 221 231 235 237 254 256 246 240 245 242 252 255 256 261 281 281 284 280 203 247 239 231 241 206 224 228 229
263 256 250 240 229 214 196 211 222 242 295 258 240 236 234 233 228 220 227 236 241 237 243 258 262 266 266 242 247 257 248 263 270 274 278 277 286 273 191 133 175 170 169 208 201
259 262 254 235 227 216 209 222 232 299 272 273 259 257 244 220 223 237 229 240 243 242 243 252 261 263 265 275 253 252 264 274 266 265 262 277 282 294 255 211 184 249 231 193 241
242 237 242 250 227 218 222 234 245 251 268 254 260 268 256 266 225 229 237 257 243 249 242 248 249 261 262 256 257 262 239 249 261 271 290 289 266 221 220 173 283 250 220 205 277
217 208 253 260 240 231 234 239 237 248 245 262 253 259 266 271 253 253 261 271 315 266 247 260 250 262 263 263 259 258 256 259 253 253 251 263 280 281 218 242 222 232 226 274 252
182 220 268 246 230 231 247 247 241 239 251 246 260 249 256 258 268 259 264 263 297 252 269 278 274 258 262 264 259 252 256 247 260 266 275 280 274 288 262 217 272 266 245 273 284
194 203 267 273 232 237 252 241 242 241 242 241 255 252 252 255 253 260 261 260 259 268 259 271 262 266 284 272 288 275 284 262 287 274 274 271 276 290 353 212 177 194 197 273 269
192 195 274 239 256 238 241 245 258 239 244 248 251 248 250 258 258 258 258 258 261 263 264 270 263 264 268 274 281 288 262 273 262 288 341 315 350 6 30 16 264 268 250 256 262
195 216 226 211 249 241 237 242 248 246 234 242 253 247 247 265 257 264 262 260 258 261 256 252 258 260 266 271 278 280 277 282 256 261 272 291 306 313 309 311 252 195 208 243 231
225 223 233 214 255 246 246 240 242 245 235 242 239 256 245 262 267 263 257 259 260 261 258 258 269 274 279 280 281 283 279 283 300 289 309 317 289 289 304 304 279 270 271 238 283
Height
3186 3187 3187 3187 3187 3187 3187 3187 3187 3186 3185 3185 3184 3183 3183 3183 3182 3181 3180 3180 3180 3180 3181 3181 3182 3184 3188 3193 3196 3190 3181 3180 3184 3186 3190 3192 3192 3193 3192 3194 3193 3193 3192 3189 3190
3186 3187 3187 3187 3187 3188 3188 3188 3187 3187 3186 3186 3185 3185 3184 3183 3183 3181 3180 3179 3179 3180 3181 3183 3188 3191 3195 3200 3196 3193 3188 3187 3189 3190 3190 3193 3192 3194 3194 3194 3193 3193 3192 3190 3191
3186 3186 3187 3187 3187 3188 3188 3188 3188 3188 3187 3186 3186 3186 3185 3185 3184 3182 3181 3180 3180 3180 3182 3186 3193 3199 3203 3200 3190 3186 3188 3192 3192 3191 3191 3193 3193 3195 3195 3197 3194 3193 3192 3190 3191
3185 3186 3186 3187 3187 3187 3188 3188 3188 3188 3188 3188 3188 3187 3187 3187 3189 3185 3183 3182 3182 3184 3186 3193 3195 3187 3191 3174 3176 3193 3193 3194 3193 3193 3193 3193 3194 3195 3196 3197 3194 3192 3191 3191 3192
3184 3184 3185 3186 3186 3187 3187 3188 3189 3189 3188 3188 3189 3188 3187 3188 3188 3187 3186 3185 3184 3185 3188 3195 3189 3187 3194 3195 3195 3194 3194 3194 3193 3193 3193 3191 3192 3194 3196 3196 3193 3192 3191 3191 3193
3182 3183 3183 3184 3185 3185 3187 3187 3188 3189 3189 3189 3189 3189 3188 3189 3190 3189 3189 3188 3186 3185 3195 3196 3197 3198 3196 3196 3196 3193 3193 3193 3192 3193 3192 3191 3188 3194 3196 3196 3193 3192 3192 3193 3195
3180 3180 3181 3182 3183 3184 3185 3186 3188 3189 3189 3189 3189 3189 3190 3190 3190 3190 3190 3190 3189 3187 3190 3196 3193 3192 3191 3188 3190 3189 3189 3191 3192 3193 3193 3193 3193 3194 3195 3196 3195 3193 3193 3193 3194
3178 3178 3179 3179 3181 3182 3183 3185 3187 3188 3189 3189 3188 3189 3189 3189 3190 3191 3192 3192 3192 3191 3189 3189 3189 3186 3189 3192 3192 3191 3191 3190 3191 3193 3194 3194 3193 3192 3194 3194 3195 3196 3195 3194 3194
3178 3178 3177 3177 3178 3179 3181 3183 3185 3186 3188 3189 3189 3189 3190 3190 3190 3191 3192 3192 3194 3194 3193 3192 3190 3188 3193 3192 3190 3192 3191 3188 3189 3192 3192 3193 3191 3190 3192 3192 3193 3194 3195 3194 3193
3177 3177 3177 3176 3176 3176 3178 3180 3182 3184 3186 3187 3188 3191 3188 3189 3189 3190 3192 3193 3196 3196 3196 3195 3193 3191 3194 3194 3195 3193 3188 3188 3189 3193 3191 3190 3189 3191 3188 3190 3190 3189 3190 3191 3192
3176 3176 3175 3175 3176 3176 3176 3178 3184 3184 3181 3183 3187 3186 3188 3190 3189 3190 3191 3193 3194 3196 3197 3197 3196 3192 3189 3193 3193 3192 3190 3187 3187 3190 3191 3188 3186 3186 3186 3185 3187 3187 3185 3187 3189
3174 3174 3175 3175 3175 3175 3175 3177 3179 3178 3178 3179 3181 3185 3187 3187 3188 3189 3191 3193 3195 3195 3196 3197 3193 3193 3192 3193 3193 3192 3190 3188 3188 3187 3187 3185 3182 3181 3181 3181 3182 3184 3185 3184 3185
3172 3172 3173 3173 3174 3174 3175 3175 3174 3176 3176 3176 3177 3180 3184 3185 3186 3189 3189 3190 3193 3195 3195 3192 3193 3193 3193 3193 3192 3191 3188 3186 3186 3186 3184 3180 3176 3172 3174 3176 3177 3179 3180 3181 3181
3169 3170 3171 3172 3175 3173 3174 3174 3174 3175 3176 3173 3174 3177 3180 3183 3183 3185 3187 3190 3191 3192 3193 3191 3191 3191 3191 3192 3192 3188 3188 3188 3187 3186 3181 3178 3173 3169 3171 3170 3174 3173 3174 3178 3178
3167 3167 3169 3170 3172 3173 3173 3174 3174 3176 3174 3170 3172 3173 3175 3179 3183 3181 3186 3187 3188 3190 3192 3189 3189 3190 3190 3190 3190 3189 3187 3186 3186 3185 3180 3175 3169 3167 3166 3170 3172 3171 3172 3174 3174
3163 3164 3166 3168 3169 3171 3172 3173 3175 3180 3169 3169 3169 3169 3173 3175 3178 3181 3182 3185 3187 3188 3187 3186 3187 3187 3186 3187 3188 3187 3187 3186 3184 3179 3173 3165 3164 3168 3161 3165 3167 3169 3170 3171 3174
3160 3161 3162 3164 3167 3169 3171 3173 3178 3172 3167 3167 3167 3169 3170 3173 3175 3178 3180 3181 3183 3184 3184 3184 3183 3184 3185 3185 3186 3185 3186 3182 3178 3170 3163 3159 3164 3165 3163 3161 3163 3165 3167 3168 3171
3157 3158 3159 3161 3163 3166 3169 3173 3173 3163 3163 3164 3166 3167 3169 3170 3171 3174 3176 3177 3179 3180 3179 3177 3175 3176 3176 3179 3181 3181 3181 3179 3174 3169 3162 3161 3160 3161 3153 3161 3161 3160 3161 3165 3168
3154 3155 3156 3158 3160 3163 3167 3169 3165 3165 3164 3164 3165 3166 3166 3167 3169 3169 3172 3173 3174 3175 3177 3176 3172 3173 3173 3175 3176 3176 3176 3178 3173 3170 3164 3159 3156 3156 3155 3158 3160 3160 3159 3160 3164
3151 3152 3152 3155 3157 3160 3162 3162 3162 3164 3164 3165 3165 3163 3162 3162 3165 3167 3167 3168 3169 3170 3171 3171 3170 3171 3170 3171 3171 3173 3176 3174 3169 3163 3161 3156 3154 3152 3149 3154 3161 3160 3158 3157 3156
3149 3151 3148 3152 3154 3155 3156 3158 3160 3162 3163 3166 3165 3163 3162 3160 3160 3162 3163 3164 3163 3165 3166 3167 3167 3168 3168 3167 3167 3168 3167 3169 3168 3165 3157 3151 3148 3149 3150 3152 3158 3159 3159 3155 3153
3146 3149 3148 3149 3151 3151 3153 3156 3159 3159 3161 3161 3162 3162 3160 3160 3160 3162 3161 3160 3160 3161 3162 3162 3162 3161 3161 3162 3162 3162 3161 3162 3159 3158 3156 3155 3150 3149 3142 3151 3152 3155 3152 3153 3153
3143 3148 3146 3147 3148 3149 3152 3152 3155 3157 3157 3159 3159 3160 3161 3161 3162 3161 3161 3159 3160 3160 3161 3161 3159 3157 3157 3158 3155 3154 3154 3155 3155 3153 3150 3149 3146 3147 3142 3142 3146 3149 3146 3147 3146
3142 3146 3144 3142 3143 3146 3148 3149 3151 3153 3153 3155 3156 3157 3157 3157 3158 3158 3158 3158 3158 3158 3159 3161 3160 3157 3153 3150 3150 3153 3153 3150 3151 3148 3147 3146 3145 3147 3139 3139 3136 3136 3137 3139 3141
3139 3142 3142 3142 3142 3143 3146 3147 3146 3148 3150 3151 3152 3153 3154 3155 3155 3154 3155 3156 3155 3156 3156 3159 3156 3156 3152 3151 3147 3147 3147 3152 3149 3148 3147 3146 3144 3143 3142 3139 3135 3137 3134 3136 3137
3135 3133 3135 3136 3141 3142 3142 3143 3144 3145 3147 3147 3148 3149 3150 3150 3151 3150 3150 3150 3150 3151 3151 3152 3151 3151 3148 3149 3147 3142 3143 3142 3143 3142 3140 3146 3142 3141 3141 3144 3138 3123 3110 3122 3133
3127 3131 3132 3135 3138 3140 3140 3140 3141 3143 3143 3143 3145 3145 3146 3147 3144 3145 3145 3145 3146 3147 3147 3147 3146 3146 3142 3145 3142 3140 3140 3138 3137 3136 3143 3138 3126 3135 3134 3137 3139 3132 3131 3130 3135